User: anonymous   Login
Location: Grasslands National Park East Block
(49.0708°N, 106.5295°W)
Time: 05:20:15
(UTC-06:00)
Language:

SR - Orbit

View from above orbital plane
View from above orbital plane
View from above satellite
View from above satellite

Ground track
Ground track

The orbit data is extracted from the following two-line orbital elements,

1    46U 60007B   20218.11564966 -.00000040  00000-0  15079-4 0  9995
2    46  66.6901 275.0383 0202363  95.1789 267.2447 14.49306912146151
Epoch (UTC): 05 August 2020 02:46:32
Eccentricity: 0.0202363
inclination: 66.6901°
perigee height: 584 km
apogee height: 872 km
right ascension of ascending node: 275.0383°
argument of perigee: 95.1789°
revolutions per day: 14.49306912
mean anomaly at epoch: 267.2447°
orbit number at epoch: 14615

The dashed part of the orbit path shows where the satellite is in the earth's shadow,  

DLR